Location: Tauranga
(37.6860°S, 176.1670°E)
Time: 18:30:39
(UTC+13:00)

ARGOS - Pass Details

Date: 24 January 2019
Orbit: 821 x 834 km, 98.5° (Epoch: 23 October)

Event Time Altitude Azimuth Distance (km) Brightness Sun altitude
Rises 23:12:22 0° 175° (S) 3,390 7.1 -24.8°
Reaches altitude 10° 23:14:50 10° 181° (S) 2,450 6.3 -25.1°
Maximum altitude 23:19:56 43° 251° (WSW) 1,147 4.2 -25.7°
Enters shadow 23:23:22 19° 313° (NW) 1,852 4.9 -26.1°
